Flag for Canada Weather past 2 weeks in Laval, Quebec, Canada

Now
23 °F

Passing clouds.


Feels Like: 16 °F
Forecast: 19 / 27 °F
Wind: 6 mph from Southwest

Location: Montreal / Mirabel

Current Time: Dec 19, 2014 at 12:55:54 PM

Latest Report: Dec 19, 2014 at 12:00 PM


Visibility: 45 mi

Pressure: 30.11 "Hg

Humidity: 68%

Dew point: 14 °F

Location of LavalLocation

Historic Weather in Laval — Graph

°F

Laval temperature yesterday

Maximum temperature yesterday: 32 °F (at 12:00 AM)
Minimum temperature yesterday: 27 °F (at 11:00 PM)
Average temperature yesterday: 31 °F

Past Weeks' High & Low Weather Summary

 TemperatureHumidityPressure
High34 °F (Dec 10, 8:00 AM)100% (Dec 6, 8:00 AM)30.84 "Hg (Dec 6, 8:00 AM)
Low-2 °F (Dec 5, 1:00 AM)37% (Dec 7, 2:00 PM)29.58 "Hg (Dec 11, 1:00 AM)
Average24 °F83%30.12 "Hg
* Reported Dec 4 11:00 AM — Dec 19 11:00 AM, Laval, Weather by CustomWeather, © 2014

Note: Actual official high and low records may vary slightly from our data, if they occured in-between our weather recording intervals... More about our weather records

Advertising

Laval weather history for previous 24 hours

 ConditionsComfort  
Time TempWeatherWind HumidityBarometerVisibility
11:00 AM
Dec 19
23 °FPassing clouds.6 mph68%30.11 "Hg45 mi
10:00 AM21 °FPassing clouds.6 mph74%30.11 "Hg45 mi
9:00 AM19 °FPassing clouds.5 mph79%30.09 "Hg45 mi
8:00 AM19 °FScattered clouds.6 mph79%30.07 "Hg25 mi
7:00 AM21 °FPartly cloudy.3 mph80%30.04 "Hg25 mi
6:00 AM23 °FOvercast.2 mph80%30.03 "Hg25 mi
5:00 AM23 °FOvercast.6 mph80%30.01 "Hg25 mi
4:00 AM25 °FOvercast.6 mph74%30.00 "Hg25 mi
3:00 AM25 °FOvercast.3 mph86%29.99 "Hg25 mi
2:00 AM25 °FOvercast.3 mph86%29.98 "Hg25 mi
1:00 AM27 °FMostly cloudy.5 mph80%29.97 "Hg25 mi
12:00 AM27 °FMostly cloudy.5 mph80%29.96 "Hg25 mi
11:00 PM
Dec 18
27 °FMostly cloudy.3 mph86%29.96 "Hg25 mi
10:00 PM28 °FMostly cloudy.5 mph74%29.96 "Hg25 mi
9:00 PM28 °FMostly cloudy.6 mph80%29.96 "Hg25 mi
8:00 PM28 °FMostly cloudy.6 mph86%29.96 "Hg25 mi
7:00 PM28 °FMostly cloudy.6 mph86%29.95 "Hg25 mi
6:00 PM28 °FMostly cloudy.5 mph86%29.93 "Hg25 mi
5:00 PM28 °FPartly cloudy.5 mph86%29.93 "Hg25 mi
4:00 PM30 °FBroken clouds.8 mph80%29.90 "Hg25 mi
3:00 PM30 °FBroken clouds.7 mph86%29.89 "Hg25 mi
2:00 PM32 °FOvercast.6 mph80%29.89 "Hg25 mi
1:00 PM32 °FMostly cloudy.8 mph87%29.88 "Hg15 mi
12:00 PM32 °FLight snow. More clouds than sun.6 mph87%29.88 "Hg10 mi
Weather by CustomWeather, © 2014

See weather overviewHow to use our weather pages